Time,TemperatureF,DewpointF,PressureIn,WindDirection,WindDirectionDegrees,WindSpeedMPH,WindSpeedGustMPH,Humidity,HourlyPrecipIn,Conditions,Clouds,dailyrainin,SoftwareType,DateUTC
2013-03-08 00:10:00,31.9,30.0,29.92,North,351,3.0,9.0,92,0.00,,,0.00,weatherlink.com 1.10,2013-03-08 05:10:00,
2013-03-08 00:25:00,31.9,30.0,29.92,North,5,6.0,9.0,92,0.00,,,0.00,weatherlink.com 1.10,2013-03-08 05:25:00,
2013-03-08 00:41:00,31.8,30.0,29.92,NNW,343,1.0,9.0,92,0.00,,,0.00,weatherlink.com 1.10,2013-03-08 05:41:00,
2013-03-08 00:56:00,31.7,30.0,29.92,North,5,5.0,9.0,92,0.00,,,0.00,weatherlink.com 1.10,2013-03-08 05:56:00,
2013-03-08 01:11:00,31.7,30.0,29.92,North,360,4.0,9.0,93,0.00,,,0.00,weatherlink.com 1.10,2013-03-08 06:11:00,
2013-03-08 01:26:00,31.5,30.0,29.91,NNW,341,7.0,10.0,93,0.00,,,0.00,weatherlink.com 1.10,2013-03-08 06:26:00,
2013-03-08 01:41:00,31.5,30.0,29.91,North,360,4.0,12.0,93,0.00,,,0.00,weatherlink.com 1.10,2013-03-08 06:41:00,
2013-03-08 01:56:00,31.4,30.0,29.90,North,11,6.0,11.0,93,0.00,,,0.00,weatherlink.com 1.10,2013-03-08 06:56:00,
2013-03-08 02:11:00,31.4,30.0,29.90,North,349,7.0,13.0,93,0.00,,,0.00,weatherlink.com 1.10,2013-03-08 07:11:00,
2013-03-08 02:26:00,31.4,30.0,29.89,NNW,342,6.0,13.0,93,0.00,,,0.00,weatherlink.com 1.10,2013-03-08 07:26:00,
2013-03-08 02:41:00,31.4,30.0,29.89,NNE,20,2.0,11.0,93,0.00,,,0.00,weatherlink.com 1.10,2013-03-08 07:41:00,
2013-03-08 02:56:00,31.4,30.0,29.89,North,350,2.0,10.0,93,0.00,,,0.00,weatherlink.com 1.10,2013-03-08 07:56:00,
2013-03-08 03:11:00,31.4,30.0,29.88,NNW,342,2.0,12.0,93,0.00,,,0.00,weatherlink.com 1.10,2013-03-08 08:11:00,
2013-03-08 03:26:00,31.3,30.0,29.88,NNW,343,5.0,9.0,93,0.00,,,0.00,weatherlink.com 1.10,2013-03-08 08:26:00,
2013-03-08 03:41:00,31.3,30.0,29.88,NNW,339,12.0,12.0,93,0.00,,,0.00,weatherlink.com 1.10,2013-03-08 08:41:00,
2013-03-08 03:56:00,31.3,30.0,29.88,North,11,3.0,12.0,93,0.00,,,0.00,weatherlink.com 1.10,2013-03-08 08:56:00,
2013-03-08 04:11:00,31.3,30.0,29.88,NE,38,2.0,11.0,93,0.00,,,0.00,weatherlink.com 1.10,2013-03-08 09:11:00,
2013-03-08 04:26:00,31.3,30.0,29.89,North,5,5.0,13.0,93,0.00,,,0.00,weatherlink.com 1.10,2013-03-08 09:26:00,
2013-03-08 04:41:00,31.3,30.0,29.88,NNE,15,5.0,8.0,93,0.00,,,0.00,weatherlink.com 1.10,2013-03-08 09:41:00,
2013-03-08 04:56:00,31.3,30.0,29.88,North,355,4.0,10.0,93,0.00,,,0.00,weatherlink.com 1.10,2013-03-08 09:56:00,
2013-03-08 05:11:00,31.2,29.0,29.88,North,355,6.0,13.0,93,0.00,,,0.00,weatherlink.com 1.10,2013-03-08 10:11:00,
2013-03-08 05:26:00,31.1,29.0,29.88,North,355,4.0,16.0,93,0.00,,,0.00,weatherlink.com 1.10,2013-03-08 10:26:00,
2013-03-08 05:41:00,31.1,29.0,29.88,NNW,330,11.0,14.0,93,0.00,,,0.00,weatherlink.com 1.10,2013-03-08 10:41:00,
2013-03-08 05:56:00,31.1,29.0,29.89,North,360,6.0,14.0,93,0.00,,,0.00,weatherlink.com 1.10,2013-03-08 10:56:00,
2013-03-08 06:11:00,31.1,29.0,29.89,North,351,5.0,10.0,93,0.00,,,0.00,weatherlink.com 1.10,2013-03-08 11:11:00,
2013-03-08 06:26:00,31.1,29.0,29.90,North,360,8.0,12.0,93,0.00,,,0.00,weatherlink.com 1.10,2013-03-08 11:26:00,
2013-03-08 06:41:00,31.2,29.0,29.90,North,9,6.0,14.0,93,0.00,,,0.00,weatherlink.com 1.10,2013-03-08 11:41:00,
2013-03-08 06:56:00,31.3,30.0,29.91,NNW,341,4.0,9.0,93,0.00,,,0.00,weatherlink.com 1.10,2013-03-08 11:56:00,
2013-03-08 07:11:00,31.4,30.0,29.91,NNW,327,8.0,11.0,93,0.00,,,0.00,weatherlink.com 1.10,2013-03-08 12:11:00,
2013-03-08 07:26:00,31.5,30.0,29.92,North,360,7.0,9.0,93,0.00,,,0.00,weatherlink.com 1.10,2013-03-08 12:26:00,
2013-03-08 07:41:00,31.5,30.0,29.91,North,349,6.0,12.0,93,0.00,,,0.00,weatherlink.com 1.10,2013-03-08 12:41:00,
2013-03-08 07:56:00,31.6,30.0,29.91,North,5,4.0,15.0,93,0.00,,,0.00,weatherlink.com 1.10,2013-03-08 12:56:00,
2013-03-08 08:11:00,31.7,30.0,29.91,NNW,348,5.0,12.0,93,0.00,,,0.00,weatherlink.com 1.10,2013-03-08 13:11:00,
2013-03-08 08:26:00,31.9,30.0,29.91,North,355,4.0,10.0,93,0.00,,,0.00,weatherlink.com 1.10,2013-03-08 13:26:00,
2013-03-08 08:41:00,32.0,30.0,29.91,North,5,8.0,11.0,93,0.00,,,0.00,weatherlink.com 1.10,2013-03-08 13:41:00,
2013-03-08 08:56:00,32.2,30.0,29.91,North,11,4.0,11.0,92,0.00,,,0.00,weatherlink.com 1.10,2013-03-08 13:56:00,
2013-03-08 09:11:00,32.2,30.0,29.92,North,355,5.0,11.0,92,0.00,,,0.00,weatherlink.com 1.10,2013-03-08 14:11:00,
2013-03-08 09:27:00,32.3,30.0,29.92,North,9,4.0,11.0,91,0.00,,,0.00,weatherlink.com 1.10,2013-03-08 14:27:00,
2013-03-08 09:42:00,32.5,30.0,29.92,NNW,336,6.0,11.0,91,0.00,,,0.00,weatherlink.com 1.10,2013-03-08 14:42:00,
2013-03-08 10:12:00,33.2,31.0,29.93,North,360,4.0,13.0,90,0.00,,,0.00,weatherlink.com 1.10,2013-03-08 15:12:00,
2013-03-08 10:27:00,33.8,31.0,29.93,North,5,8.0,11.0,89,0.00,,,0.00,weatherlink.com 1.10,2013-03-08 15:27:00,
2013-03-08 10:42:00,34.4,32.0,29.93,NNE,17,5.0,9.0,89,0.00,,,0.00,weatherlink.com 1.10,2013-03-08 15:42:00,
2013-03-08 10:57:00,34.8,31.0,29.93,North,5,7.0,14.0,86,0.00,,,0.00,weatherlink.com 1.10,2013-03-08 15:57:00,
2013-03-08 11:12:00,35.0,31.0,29.93,NNW,348,6.0,16.0,84,0.00,,,0.00,weatherlink.com 1.10,2013-03-08 16:12:00,
2013-03-08 11:27:00,34.6,31.0,29.93,NNE,24,5.0,17.0,86,0.00,,,0.00,weatherlink.com 1.10,2013-03-08 16:27:00,
2013-03-08 11:42:00,34.4,31.0,29.94,North,355,4.0,13.0,88,0.00,,,0.00,weatherlink.com 1.10,2013-03-08 16:42:00,
2013-03-08 11:57:00,34.9,31.0,29.93,NNE,29,2.0,9.0,87,0.00,,,0.00,weatherlink.com 1.10,2013-03-08 16:57:00,
2013-03-08 12:12:00,35.5,31.0,29.94,NNW,345,3.0,10.0,85,0.00,,,0.00,weatherlink.com 1.10,2013-03-08 17:12:00,
2013-03-08 12:27:00,36.1,31.0,29.93,NNE,20,3.0,10.0,82,0.00,,,0.00,weatherlink.com 1.10,2013-03-08 17:27:00,
2013-03-08 12:42:00,37.2,31.0,29.93,North,351,7.0,8.0,79,0.00,,,0.00,weatherlink.com 1.10,2013-03-08 17:42:00,
2013-03-08 12:57:00,38.5,30.0,29.93,NNW,347,3.0,8.0,71,0.00,,,0.00,weatherlink.com 1.10,2013-03-08 17:57:00,
2013-03-08 13:12:00,39.7,30.0,29.94,North,351,3.0,8.0,69,0.00,,,0.00,weatherlink.com 1.10,2013-03-08 18:12:00,
2013-03-08 13:27:00,40.7,31.0,29.93,NNW,336,7.0,12.0,69,0.00,,,0.00,weatherlink.com 1.10,2013-03-08 18:27:00,
2013-03-08 13:42:00,41.5,32.0,29.93,North,11,8.0,8.0,68,0.02,,,0.02,weatherlink.com 1.10,2013-03-08 18:42:00,
2013-03-08 13:57:00,42.0,29.0,29.93,North,349,9.0,15.0,61,0.04,,,0.04,weatherlink.com 1.10,2013-03-08 18:57:00,
2013-03-08 14:12:00,42.0,28.0,29.93,NW,325,4.0,13.0,59,0.07,,,0.07,weatherlink.com 1.10,2013-03-08 19:12:00,
2013-03-08 14:27:00,42.2,28.0,29.94,North,355,6.0,11.0,57,0.10,,,0.10,weatherlink.com 1.10,2013-03-08 19:27:00,
2013-03-08 14:42:00,42.3,28.0,29.94,NNE,23,3.0,13.0,58,0.11,,,0.13,weatherlink.com 1.10,2013-03-08 19:42:00,
2013-03-08 14:57:00,42.4,28.0,29.94,NNE,20,4.0,8.0,57,0.12,,,0.16,weatherlink.com 1.10,2013-03-08 19:57:00,
2013-03-08 15:12:00,42.6,28.0,29.94,North,5,4.0,11.0,56,0.11,,,0.18,weatherlink.com 1.10,2013-03-08 20:12:00,
2013-03-08 15:27:00,42.6,28.0,29.95,NE,36,4.0,7.0,57,0.10,,,0.20,weatherlink.com 1.10,2013-03-08 20:27:00,
2013-03-08 15:42:00,42.8,28.0,29.95,NW,324,2.0,8.0,57,0.08,,,0.21,weatherlink.com 1.10,2013-03-08 20:42:00,
2013-03-08 15:57:00,43.0,29.0,29.96,North,360,2.0,9.0,58,0.05,,,0.21,weatherlink.com 1.10,2013-03-08 20:57:00,
2013-03-08 16:12:00,42.9,29.0,29.96,North,350,1.0,6.0,59,0.03,,,0.21,weatherlink.com 1.10,2013-03-08 21:12:00,
2013-03-08 16:28:00,42.7,29.0,29.97,North,5,1.0,6.0,59,0.01,,,0.21,weatherlink.com 1.10,2013-03-08 21:28:00,
2013-03-08 16:43:00,42.6,31.0,29.97,NNW,342,1.0,6.0,65,0.04,,,0.25,weatherlink.com 1.10,2013-03-08 21:43:00,
2013-03-08 16:58:00,42.2,29.0,29.98,North,5,1.0,5.0,61,0.06,,,0.27,weatherlink.com 1.10,2013-03-08 21:58:00,
2013-03-08 17:13:00,41.8,29.0,29.99,NNE,26,1.0,3.0,60,0.08,,,0.29,weatherlink.com 1.10,2013-03-08 22:13:00,
2013-03-08 17:28:00,41.0,31.0,29.99,NNE,25,1.0,2.0,68,0.09,,,0.30,weatherlink.com 1.10,2013-03-08 22:28:00,
2013-03-08 17:43:00,39.9,32.0,30.00,NNW,344,1.0,2.0,72,0.06,,,0.31,weatherlink.com 1.10,2013-03-08 22:43:00,
2013-03-08 17:58:00,39.5,32.0,30.00,NNW,339,0.0,4.0,74,0.04,,,0.31,weatherlink.com 1.10,2013-03-08 22:58:00,
2013-03-08 18:13:00,39.5,30.0,30.01,NNW,331,2.0,5.0,68,0.03,,,0.32,weatherlink.com 1.10,2013-03-08 23:13:00,
2013-03-08 18:28:00,39.6,28.0,30.02,NW,324,1.0,4.0,64,0.03,,,0.33,weatherlink.com 1.10,2013-03-08 23:28:00,
2013-03-08 18:43:00,39.5,30.0,30.02,NNW,338,1.0,2.0,70,0.02,,,0.33,weatherlink.com 1.10,2013-03-08 23:43:00,
2013-03-08 18:58:00,38.7,30.0,30.02,North,360,3.0,5.0,70,0.03,,,0.34,weatherlink.com 1.10,2013-03-08 23:58:00,
2013-03-08 19:13:00,38.2,30.0,30.02,NNE,28,0.0,3.0,72,0.02,,,0.34,weatherlink.com 1.10,2013-03-09 00:13:00,
2013-03-08 19:28:00,37.5,29.0,30.03,North,355,1.0,5.0,71,0.01,,,0.34,weatherlink.com 1.10,2013-03-09 00:28:00,
2013-03-08 19:43:00,37.1,29.0,30.03,NNW,348,1.0,4.0,73,0.02,,,0.35,weatherlink.com 1.10,2013-03-09 00:43:00,
2013-03-08 19:58:00,36.7,29.0,30.04,NNW,327,1.0,4.0,73,0.01,,,0.35,weatherlink.com 1.10,2013-03-09 00:58:00,
2013-03-08 20:13:00,36.1,29.0,30.05,North,5,1.0,3.0,74,0.01,,,0.35,weatherlink.com 1.10,2013-03-09 01:13:00,
2013-03-08 20:28:00,35.4,28.0,30.05,North,355,0.0,2.0,74,0.01,,,0.35,weatherlink.com 1.10,2013-03-09 01:28:00,
2013-03-08 20:43:00,34.8,28.0,30.05,North,355,1.0,2.0,75,0.00,,,0.35,weatherlink.com 1.10,2013-03-09 01:43:00,
2013-03-08 20:58:00,33.9,28.0,30.06,NNW,336,0.0,3.0,79,0.00,,,0.35,weatherlink.com 1.10,2013-03-09 01:58:00,
2013-03-08 21:13:00,33.3,27.0,30.06,NNW,327,1.0,2.0,77,0.00,,,0.35,weatherlink.com 1.10,2013-03-09 02:13:00,
2013-03-08 21:28:00,32.8,27.0,30.06,NW,319,0.0,2.0,80,0.00,,,0.35,weatherlink.com 1.10,2013-03-09 02:28:00,
2013-03-08 21:43:00,32.3,27.0,30.07,North,360,0.0,2.0,81,0.00,,,0.35,weatherlink.com 1.10,2013-03-09 02:43:00,
2013-03-08 21:58:00,31.8,27.0,30.07,NNW,329,0.0,3.0,81,0.00,,,0.35,weatherlink.com 1.10,2013-03-09 02:58:00,
2013-03-08 22:13:00,31.7,26.0,30.07,NNW,345,0.0,3.0,79,0.00,,,0.35,weatherlink.com 1.10,2013-03-09 03:13:00,
2013-03-08 22:28:00,31.6,26.0,30.07,North,355,1.0,2.0,79,0.00,,,0.35,weatherlink.com 1.10,2013-03-09 03:28:00,
2013-03-08 22:43:00,31.5,26.0,30.07,North,355,1.0,2.0,79,0.00,,,0.35,weatherlink.com 1.10,2013-03-09 03:43:00,
2013-03-08 22:58:00,31.2,26.0,30.07,North,355,0.0,1.0,81,0.00,,,0.35,weatherlink.com 1.10,2013-03-09 03:58:00,
2013-03-08 23:13:00,30.7,26.0,30.07,North,355,2.0,2.0,82,0.00,,,0.35,weatherlink.com 1.10,2013-03-09 04:13:00,
2013-03-08 23:28:00,30.3,26.0,30.07,North,355,1.0,2.0,83,0.00,,,0.35,weatherlink.com 1.10,2013-03-09 04:28:00,
2013-03-08 23:43:00,29.9,25.0,30.07,North,355,0.0,2.0,82,0.00,,,0.35,weatherlink.com 1.10,2013-03-09 04:43:00,
2013-03-08 23:58:00,29.3,25.0,30.07,North,355,0.0,0.0,83,0.00,,,0.35,weatherlink.com 1.10,2013-03-09 04:58:00,